📊 Raw Sensor Data

Showing records 40401 to 40425 of 84,963 total

ID Distance (ft) Battery V Battery A Int Temp (°F) Int Humid (%) Ext Temp (°F) Solar V RSSI SNR Time Stamp
44575 15.8 3.94 5 67 43 73 5.10 -67 8 06/26/2025 08:15 AM
44574 15.8 3.94 5 66 43 72 5.10 -66 8 06/26/2025 08:00 AM
44573 15.7 3.94 0 65 43 72 5.10 -68 8 06/26/2025 07:45 AM
44572 15.7 4.01 40 63 42 70 4.50 -67 8 06/26/2025 07:30 AM
44571 15.7 3.94 0 61 42 69 4.50 -66 8 06/26/2025 07:15 AM
44570 15.6 3.97 9 60 42 67 4.50 -67 8 06/26/2025 07:00 AM
44569 15.6 3.96 0 58 42 64 4.50 -66 8 06/26/2025 06:45 AM
44568 15.6 3.85 0 56 42 61 4.50 -66 8 06/26/2025 06:30 AM
44567 15.5 3.93 0 54 42 59 4.50 -66 8 06/26/2025 06:15 AM
44566 15.5 3.83 -7 53 43 55 4.50 -66 8 06/26/2025 06:00 AM
44565 15.5 3.83 -10 52 43 53 2.10 -66 8 06/26/2025 05:45 AM
44564 15.5 3.84 -5 52 43 53 0.80 -67 8 06/26/2025 05:30 AM
44563 15.5 3.84 -5 52 43 53 0.00 -67 8 06/26/2025 05:15 AM
44562 15.4 3.93 -5 52 43 54 0.00 -67 8 06/26/2025 05:00 AM
44561 15.5 3.84 -5 52 43 53 0.00 -66 8 06/26/2025 04:45 AM
44560 15.5 3.93 -5 53 43 54 0.00 -67 8 06/26/2025 04:30 AM
44559 15.5 3.84 -5 53 43 54 0.00 -67 8 06/26/2025 04:15 AM
44558 15.5 3.93 -5 53 43 54 0.10 -67 8 06/26/2025 04:00 AM
44557 15.5 3.85 -5 53 43 54 0.00 -66 8 06/26/2025 03:45 AM
44556 15.5 3.93 -5 53 43 54 0.00 -67 8 06/26/2025 03:30 AM
44555 15.5 3.84 -5 53 43 55 0.00 -67 8 06/26/2025 03:15 AM
44554 15.5 3.93 -5 54 44 55 0.00 -66 8 06/26/2025 03:00 AM
44553 15.5 3.83 -5 54 44 55 0.00 -66 8 06/26/2025 02:45 AM
44552 15.5 3.93 -5 54 44 55 0.00 -68 8 06/26/2025 02:30 AM
44551 15.5 3.83 -5 54 44 55 0.00 -67 8 06/26/2025 02:15 AM